Regional Weather Roundup
Issued by NWS

Home | Current Version | Previous Version | Graphics & Text | Print | Product List | Glossary Off
Versions: 1 2 3 4 5 6 7 8 9 10 11 12 13 14 15 16 17 18 19 20 21 22 23 24 25 26 27 28 29 30 31 32 33 34 35 36 37 38 39 40 41 42 43 44 45 46 47 48 49 50

000
ASUS43 KDMX 271206
RWRIA

WEATHER ROUNDUP FOR IOWA
NATIONAL WEATHER SERVICE DES MOINES IA
700 AM CDT MON MAR 27 2017

NOTE: "FAIR" INDICATES FEW OR NO CLOUDS BELOW 12,000 FEET WITH NO
SIGNIFICANT WEATHER AND/OR OBSTRUCTIONS TO VISIBILITY.

* - THESE STATIONS ARE NOT NWS STATIONS...THUS NOT UNDER NWS
QUALITY CONTROL.  THEY ALSO DO NOT REPORT WEATHER SUCH
AS PRECIPITATION OR FOG.

IAZ001>003-012>014-020>022-031>034-043>046-271300-
   NORTHWEST IOWA

CITY           SKY/WX    TMP DP  RH WIND       PRES   REMARKS
CARROLL *      CLOUDY    41  41 100 N5        29.94S
CHEROKEE *     CLOUDY    40  40  98 NE3       29.96S
LE MARS *      CLOUDY    41  41 100 N5        29.97R
ORANGE CITY *  CLOUDY    39  39 100 CALM      29.96R
SHELDON *      CLOUDY    36  36 100 CALM      29.94S FOG
SIOUX CITY     CLOUDY    43  41  93 CALM      29.96S
6HR MIN TEMP:  42; 6HR MAX TEMP:  45;

SPENCER        CLOUDY    37  36  96 NW3       29.95F FOG
6HR MIN TEMP:  37; 6HR MAX TEMP:  41;

STORM LAKE *   CLOUDY    39  37  93 N6        29.95S WCI  35
$$

IAZ055>058-069>071-079>083-090>094-271300-
   SOUTHWEST IOWA

CITY           SKY/WX    TMP DP  RH WIND       PRES   REMARKS
ATLANTIC *     CLOUDY    41  41 100 N9        29.92F
AUDUBON *      CLOUDY    39  37  93 N6        29.94S WCI  35
CLARINDA *     CLOUDY    45  45 100 NE10      29.94S
COUNCIL BLFS * CLOUDY    43  43 100 NE7       29.93S
CRESTON *      CLOUDY    43  43 100 N13       29.92S
HARLAN  *      CLOUDY    41  41 100 NE9       29.96F
LAMONI         CLOUDY    44  43  96 N13       29.88F FOG
6HR MIN TEMP:  44; 6HR MAX TEMP:  45; 6HR PCP:  0.02;

RED OAK *      CLOUDY    45  43  93 NE12      29.93R
SHENANDOAH *   CLOUDY    45  43  93 NE12      29.93S
$$

IAZ047>049-059>061-072>074-084-271300-
   CENTRAL IOWA

CITY           SKY/WX    TMP DP  RH WIND       PRES   REMARKS
AMES           CLOUDY    41  41 100 N9        29.94S
6HR MIN TEMP:  41; 6HR MAX TEMP:  43;

ANKENY *       CLOUDY    41  41 100 N8        29.94S
BOONE *        CLOUDY    39  39 100 N9        29.93S WCI  33
CHARITON *     CLOUDY    43  43 100 N9        29.91S FOG
DES MOINES     CLOUDY    44  40  85 N8        29.93S
6HR MIN TEMP:  44; 6HR MAX TEMP:  46; 6HR PCP: TRACE;

GRINNELL*      LGT RAIN  42  41  96 N7        29.94S
MARSHALLTOWN   CLOUDY    42  42 100 N8        29.93R FOG
6HR MIN TEMP:  42; 6HR MAX TEMP:  44; 6HR PCP:  0.01;

NEWTON *       CLOUDY    43  43 100 N8        29.92S FOG
PELLA *        DRZL/FOG  44  43  99 N8        29.92F VSB 3/4
PERRY *        CLOUDY    41  40  96 N8        29.93F
$$

IAZ004>006-015-016-023>025-035-036-271300-
   NORTH CENTRAL IOWA

CITY           SKY/WX    TMP DP  RH WIND       PRES   REMARKS
ALGONA *       CLOUDY    39  39 100 N5        29.95S
CLARION *      CLOUDY    39  39 100 N8        29.94F WCI  34
ESTHERVILLE    CLOUDY    37  37 100 CALM      29.95S
6HR MIN TEMP:  37; 6HR MAX TEMP:  38;

FORT DODGE *   CLOUDY    39  36  87 N3        29.95S
MASON CITY     CLOUDY    38  37  97 N9        29.95S FOG     WCI  31
6HR MIN TEMP:  38; 6HR MAX TEMP:  40;

FOREST CITY *  CLOUDY    37  37 100 N6        29.94S WCI  33
WEBSTER CITY * CLOUDY    39  37  93 N8        29.93S WCI  34
IOWA FALLS *   CLOUDY    41  40  96 N6        29.95R FOG
$$

IAZ007>011-017>019-026>030-037>042-050>054-066-271300-
   NORTHEAST IOWA

CITY           SKY/WX    TMP DP  RH WIND       PRES   REMARKS
CEDAR RAPIDS   FOG       43  43 100 N6        29.92R VSB 1/4
6HR MIN TEMP:  43; 6HR MAX TEMP:  45;

CHARLES CITY * CLOUDY    39  39 100 N7        29.94S FOG     WCI  34
CLINTON *      CLOUDY    45  45 100 N5        29.93R FOG
DECORAH *      FOG       39  39 100 NW6       29.92F VSB<1/4 WCI  35
DUBUQUE        CLOUDY    42  40  92 N8        29.91F
6HR MIN TEMP:  42; 6HR MAX TEMP:  43;

MONTICELLO *   CLOUDY    43  43 100 CALM      29.92R FOG
OELWEIN *      MIX PCPN  41  41 100 N3        29.94S
WATERLOO       CLOUDY    41  40  96 N3        29.94S FOG
6HR MIN TEMP:  41; 6HR MAX TEMP:  43;

$$

IAZ064-065-067-068-078-271300-
   EAST CENTRAL IOWA

CITY           SKY/WX    TMP DP  RH WIND       PRES   REMARKS
DAVENPORT      FOG       46  45  96 N8        29.92R VSB 1/2
6HR MIN TEMP:  46; 6HR MAX TEMP:  47;

IOWA CITY      CLOUDY    47  43  86 N7        29.93S
6HR MIN TEMP:  46; 6HR MAX TEMP:  48;

MUSCATINE *    CLOUDY    46  46 100 CALM      29.92S FOG
QUAD CITIES    CLOUDY    48  45  89 CALM      29.91R
6HR MIN TEMP:  48; 6HR MAX TEMP:  49;

$$

IAZ062-063-075>077-085>089-095>099-271300-
   SOUTHEAST IOWA

CITY           SKY/WX    TMP DP  RH WIND       PRES   REMARKS
BURLINGTON     CLOUDY    47  46  97 NE5       29.91R
6HR MIN TEMP:  47; 6HR MAX TEMP:  48;

FAIRFIELD *    CLOUDY    45  45 100 N3        29.91S FOG
FORT MADISON * CLOUDY    46  46 100 N5        29.91F FOG
KEOKUK *       CLOUDY    46  46 100 CALM      29.90S
OSKALOOSA *    FOG       44  43  98 N5        29.92R VSB 1/2
OTTUMWA        FOG       45  45 100 N7        29.91R VSB 1/2
6HR MIN TEMP:  45; 6HR MAX TEMP:  46;

WASHINGTON *   CLOUDY    46  45  93 N5        29.93R FOG
$$

ABBREVIATIONS USED IN REMARKS
   TC - TEMPERATURES IN CELSIUS
  WCI - WIND CHILL INDEX
   HX - HEAT INDEX
  VSB - VISIBILITY
$$




USA.gov is the U.S. government's official web portal to all federal, state and local government web resources and services.